This is the latest recevied weather packets stored in our database for station/object EA2RCU-15. If no packets are shown the sender has not sent any weather packets the latest 10 day(s).
| Time | Temp. | Humidity | Pressure | Rain* | Wind** | Luminosity | Snow |
|---|---|---|---|---|---|---|---|
| 1778180104 | 16.67° C | 53% | 993 hPa | 0 mm | - | - | - |
| 1778179804 | 16.67° C | 53% | 993 hPa | 0 mm | - | - | - |
| 1778179504 | 16.67° C | 50% | 993 hPa | 0 mm | - | - | - |
| 1778179205 | 17.22° C | 49% | 994 hPa | 0 mm | - | - | - |
| 1778178904 | 17.22° C | 47% | 994 hPa | 0 mm | - | - | - |
| 1778178604 | 17.78° C | 46% | 994 hPa | 0 mm | - | - | - |
| 1778178304 | 18.33° C | 43% | 994 hPa | 0 mm | - | - | - |
| 1778178004 | 18.89° C | 38% | 994 hPa | 0 mm | - | - | - |
| 1778177704 | 18.89° C | 37% | 994 hPa | 0 mm | - | - | - |
| 1778177405 | 18.89° C | 36% | 992 hPa | 0 mm | - | - | - |
| 1778177104 | 19.44° C | 36% | 992 hPa | 0 mm | - | - | - |
| 1778176804 | 18.89° C | 39% | 992 hPa | 0 mm | - | - | - |
| 1778176504 | 18.33° C | 40% | 993 hPa | 0 mm | - | - | - |
| 1778176205 | 18.33° C | 40% | 993 hPa | 0 mm | - | - | - |
| 1778175905 | 18.33° C | 39% | 993 hPa | 0 mm | - | - | - |
| 1778175605 | 18.89° C | 39% | 992 hPa | 0 mm | - | - | - |
| 1778175305 | 18.89° C | 39% | 992 hPa | 0 mm | - | - | - |
| 1778175005 | 18.89° C | 39% | 992 hPa | 0 mm | - | - | - |
| 1778174704 | 18.33° C | 38% | 992 hPa | 0 mm | - | - | - |
| 1778174404 | 18.89° C | 38% | 992 hPa | 0 mm | - | - | - |
| 1778174104 | 18.89° C | 37% | 992 hPa | 0 mm | - | - | - |
| 1778173805 | 18.89° C | 37% | 993 hPa | 0 mm | - | - | - |
| 1778173504 | 18.89° C | 37% | 993 hPa | 0 mm | - | - | - |
| 1778173204 | 18.89° C | 37% | 993 hPa | 0 mm | - | - | - |
| 1778172904 | 18.89° C | 38% | 993 hPa | 0 mm | - | - | - |
* Rain latest hour (hover to see other rain measurements)
** Current wind speed in m/s (hover to see current wind gust speed)